Back to catalog

CZ-6A DEB

AliveSSO
NORAD 56250·DEBRIS·🇨🇳 China

Launched Nov 11, 2022 from Taiyuan Satellite Launch Center

Loading…

Next Passes (next 24 hours)

TLE

FreshSource: Space-Track

Epoch: Sep 14, 2026, 07:13 UTC

1 56250U 22151ABS 26257.30108627  .00001922  00000-0  52520-3 0  9999
2 56250  98.5549 287.1252 0089992  82.0102 279.1289 14.46067732183434

Track CZ-6A DEB in real time with AllMySat

Download on the App Store